Weather History for KMLC - September, 2012

Change the Weather History Date:

Thursday, September 6, 2012

  Actual Average Record
Temperature  
Mean Temperature 86 °F -  
Max Temperature 97 °F 89 °F 101 °F (1990)
Min Temperature 75 °F 66 °F 48 °F (1974)
Cooling Degree Days 21    
Growing Degree Days 36 (Base 50)    
Moisture  
Dew Point 67 °F    
Average Humidity 56    
Maximum Humidity 82    
Minimum Humidity 37    
Precipitation  
Precipitation 0.00 in - - ()
Sea Level Pressure  
Sea Level Pressure 29.85 in    
Wind  
Wind Speed 2 mph (ENE)    
Max Wind Speed 12 mph    
Max Gust Speed -    
Visibility 10 miles    
Events      
Averages and records for this station are not official NWS values.
T = Trace of Precipitation, MM = Missing Value Source: NWS Daily Summary

Daily Weather History Graph

Daily Weather History Graph

Search for Another Location

Airport or City:

Trip Planner

Search our weather history database for the weather conditions in past years. The results will help you decide how hot, cold, wet, or windy it might be!

Date:

Astronomy

Sep. 06, 2012 Rise Set
Actual Time 6:59 AM CDT 7:42 PM CDT
Civil Twilight 6:34 AM CDT 8:07 PM CDT
Nautical Twilight 6:04 AM CDT 8:37 PM CDT
Astronomical Twilight 5:33 AM CDT 9:08 PM CDT
Moon 11:09 PM CDT (9/6) 12:44 PM CDT (9/6)
Length of Visible Light 13h 33m
Length of Day
12h 42m
Waning Gibbous, 67% of the Moon is Illuminated
Sep 6
Waning Gibbous
Sep 8
Last Quarter
Sep 15
New
Sep 22
First Quarter
Sep 29
Full

Hourly Weather History & Observations

Time (CDT) Temp. Heat Index Dew Point Humidity Pressure Visibility Wind Dir Wind Speed Gust Speed Precip Events Conditions
12:53 AM 77.0 °F - 69.1 °F 76% 29.84 in 10.0 mi Calm Calm - N/A   Clear
1:53 AM 78.1 °F - 69.1 °F 74% 29.84 in 10.0 mi Calm Calm - N/A   Clear
2:53 AM 75.0 °F - 69.1 °F 82% 29.85 in 10.0 mi Calm Calm - N/A   Partly Cloudy
3:53 AM 75.0 °F - 69.1 °F 82% 29.85 in 10.0 mi Calm Calm - N/A   Scattered Clouds
4:53 AM 75.0 °F - 68.0 °F 79% 29.85 in 10.0 mi Calm Calm - N/A   Partly Cloudy
5:53 AM 79.0 °F - 66.0 °F 64% 29.86 in 10.0 mi WNW 4.6 mph - N/A   Clear
6:53 AM 77.0 °F - 66.0 °F 69% 29.88 in 10.0 mi Calm Calm - N/A   Scattered Clouds
7:53 AM 78.1 °F - 68.0 °F 71% 29.89 in 10.0 mi Calm Calm - N/A   Overcast
8:53 AM 84.9 °F 86.1 °F 64.0 °F 49% 29.89 in 10.0 mi NNW 8.1 mph - N/A   Clear
9:53 AM 87.1 °F 88.9 °F 64.9 °F 48% 29.91 in 10.0 mi North 6.9 mph - N/A   Clear
10:53 AM 88.0 °F 90.3 °F 66.0 °F 48% 29.92 in 10.0 mi NE 4.6 mph - N/A   Clear
11:53 AM 93.0 °F 96.4 °F 66.9 °F 42% 29.90 in 10.0 mi Variable 4.6 mph - N/A   Clear
12:53 PM 97.0 °F 102.2 °F 68.0 °F 39% 29.88 in 10.0 mi Variable 4.6 mph - N/A   Clear
1:53 PM 93.9 °F 98.6 °F 68.0 °F 43% 29.88 in 10.0 mi WSW 11.5 mph - N/A   Partly Cloudy
2:53 PM 91.9 °F 95.4 °F 66.9 °F 44% 29.86 in 10.0 mi Calm Calm - N/A   Clear
3:53 PM 93.9 °F 95.6 °F 64.0 °F 37% 29.84 in 10.0 mi WSW 5.8 mph - N/A   Clear
4:53 PM 93.9 °F 97.0 °F 66.0 °F 40% 29.82 in 10.0 mi WNW 4.6 mph - N/A   Clear
5:53 PM 95.0 °F 97.4 °F 64.9 °F 37% 29.81 in 10.0 mi Calm Calm - N/A   Clear
6:53 PM 93.0 °F 96.4 °F 66.9 °F 42% 29.81 in 10.0 mi East 3.5 mph - N/A   Clear
7:53 PM 87.1 °F 90.6 °F 68.0 °F 53% 29.80 in 10.0 mi ESE 3.5 mph - N/A   Clear
8:53 PM 84.9 °F 88.2 °F 68.0 °F 57% 29.82 in 10.0 mi Calm Calm - N/A   Clear
9:53 PM 84.0 °F 86.3 °F 66.0 °F 55% 29.82 in 10.0 mi SE 4.6 mph - N/A   Clear
10:53 PM 82.0 °F 83.4 °F 64.0 °F 54% 29.83 in 10.0 mi East 3.5 mph - N/A   Clear
11:53 PM 81.0 °F 82.7 °F 64.9 °F 58% 29.85 in 10.0 mi ESE 3.5 mph - N/A   Clear